Location: Garlinge
(51.3667°N, 1.3667°E)
Time: 07:56:14
(UTC+00:00)

Daily predictions for brighter satellites

Satellite Brightness Start Highest point End
(mag) Time Altitude Azimuth Time Altitude Azimuth Time Altitude Azimuth
Cosmos 1271 Rocket 2.8 20:55:42 10° N 20:59:42 72° ENE 21:03:39 10° SSE
NOSS 2-1 (E) 4.0 21:00:13 10° NW 21:04:36 84° SW 21:10:49 10° SE
SPOT 3 Rocket 3.8 21:01:11 10° S 21:06:22 73° WSW 21:11:37 10° NNW
RESURS DK-1 3.2 21:04:49 10° NNW 21:08:46 41° NE 21:12:42 10° ESE
ERS-1 Rocket 3.1 21:04:25 10° SSE 21:09:27 74° ENE 21:14:30 10° NNW
Lacrosse 4 Rocket 4.2 21:09:34 10° W 21:12:58 24° NW 21:16:19 10° NNE
CZ-2C R/B 4.1 21:11:40 10° NNE 21:16:06 44° E 21:20:26 10° S
Cosmos 2056 Rocket 3.7 21:12:09 10° SSW 21:17:33 87° WNW 21:23:02 10° NNE
Cosmos 1025 Rocket 3.5 21:13:44 10° SSW 21:17:58 65° WNW 21:22:16 10° N
Cosmos 1455 Rocket 4.3 21:14:15 10° NNW 21:18:19 39° W 21:22:19 10° SSW
Cosmos 2315 Rocket 4.3 21:14:16 10° SSW 21:20:36 74° WNW 21:26:56 10° N
Cosmos 1741 Rocket 4.3 21:15:22 10° NNW 21:20:40 61° ENE 21:25:52 10° SE
ARIANE 5 R/B 2.9 21:18:16 10° SSE 21:22:39 58° ENE 21:27:02 10° N
Cosmos 1420 Rocket 4.1 21:20:09 10° SSW 21:25:24 89° ESE 21:30:45 10° NNE
Cosmos 2344 4.4 21:17:31 10° NW 21:25:52 68° NE 21:37:18 10° ESE
SL-8 R/B 3.8 21:22:40 10° W 21:27:25 60° S 21:32:10 10° ESE
Cosmos 1455 2.8 21:27:11 10° NNW 21:30:54 53° W 21:34:37 10° S
Cosmos 2074 Rocket 4.1 21:27:27 10° N 21:33:47 83° E 21:40:03 10° S
USA 32 4.5 21:34:58 10° SSW 21:40:09 63° W 21:45:22 10° N
Cosmos 1607 4.1 21:36:51 10° SW 21:43:05 81° NW 21:49:19 10° NE
SL-16 R/B 4.4 21:39:09 10° NNW 21:43:09 19° NNE 21:47:07 10° ENE
USA 267 3.6 21:38:41 10° ENE 21:44:53 43° SE 21:51:02 10° SSW
Cosmos 1536 Rocket 3.5 21:44:00 10° S 21:48:20 89° W 21:52:43 10° N
Cosmos 2228 3.0 21:44:10 10° N 21:48:26 81° ENE 21:52:05 14° SSE
Tiangong 3.4 21:49:38 10° SSW 21:50:20 11° SSW 21:50:37 10° S
Cosmos 1850 Rocket 4.1 21:45:36 10° NNW 21:50:51 79° WSW 21:55:21 14° SSE
Cosmos 1980 Rocket 3.0 21:45:42 10° NNW 21:51:11 44° NE 21:56:37 10° ESE
SPOT 5 3.6 21:47:01 10° S 21:51:13 41° W 21:55:22 10° NNW
Nadezhda 1 Rocket 4.1 21:47:09 10° S 21:53:05 61° E 21:59:04 10° NNE
Cosmos 1606 Rocket 3.7 21:49:12 10° N 21:53:29 61° ENE 21:56:56 15° SSE
Cosmos 1697 Rocket 2.8 21:48:15 10° NNW 21:53:55 76° ENE 21:58:44 14° SE
Cosmos 1703 3.2 21:51:26 10° S 21:55:17 84° E 21:59:10 10° NNE
Cosmos 1892 4.5 21:55:58 13° ESE 21:57:55 18° E 22:00:31 10° NE
Cosmos 2154 Rocket 4.0 21:52:20 10° N 21:58:37 89° E 22:04:14 13° S
Cosmos 2084 Rocket 4.0 21:55:05 10° NW 21:58:51 49° NE 22:02:43 10° ESE
Cosmos 2084 3.8 21:56:25 10° WSW 22:00:13 60° NW 22:04:06 10° NE
Cosmos 1656 4.2 21:57:59 10° NW 22:03:16 50° WSW 22:07:55 13° S
USA 276 2.2 22:00:43 10° WSW 22:03:36 45° SSE 22:06:30 10° E
Cosmos 1328 4.1 22:04:04 16° SSE 22:07:01 50° E 22:10:56 10° NNE
Cosmos 1331 Rocket 4.2 22:04:06 11° S 22:09:05 55° ESE 22:14:17 10° NNE
X-37B 1.6 22:10:37 10° SW 22:12:54 22° S 22:12:57 22° S
Meteor 1-21 Rocket 4.2 22:10:01 10° S 22:15:29 83° E 22:21:12 10° NNE
Lacrosse 5 3.3 22:12:51 10° WNW 22:16:58 25° SW 22:20:08 14° S
Cosmos 1408 3.5 22:15:25 19° SE 22:17:07 30° E 22:20:10 10° NNE
Cosmos 1726 Rocket 3.5 22:13:57 10° N 22:18:17 83° ENE 22:21:23 19° SSE
SAR-Lupe-4 3.6 22:14:55 10° NNE 22:18:29 65° ESE 22:20:59 18° S
Cosmos 1452 Rocket 3.6 22:13:50 10° SSW 22:19:06 80° WNW 22:24:25 10° NNE
ATLAS 2AS CENTAUR R/B 3.9 22:14:08 10° NW 22:20:03 30° WSW 22:25:25 11° S
FALCON 9 DEB 3.5 22:17:23 10° W 22:20:38 63° N 22:23:53 10° E
USA 234 3.3 22:14:25 10° SE 22:20:59 79° SSW 22:27:35 10° WNW
Terra 3.1 22:17:07 10° SSW 22:21:27 34° W 22:25:49 10° NNW
Cosmos 2322 Rocket 4.2 22:18:08 10° NNW 22:22:37 23° NE 22:27:05 10° E
Cosmos 1833 Rocket 2.7 22:18:10 10° SSW 22:23:44 69° ESE 22:29:20 10° NE
Cosmos 1867 4.0 22:20:51 10° NW 22:26:19 62° NE 22:31:18 12° SE
Cosmos 2278 4.4 22:21:45 10° NNW 22:27:20 49° NE 22:32:24 12° SE
SL-8 Rocket 4.2 22:22:50 10° N 22:29:04 64° ENE 22:33:46 18° SSE
Cosmos 1110 Rocket 4.0 22:26:00 10° SSW 22:31:16 86° ESE 22:36:36 10° NNE
Cosmos 2360 4.4 22:26:19 10° NW 22:31:59 63° WSW 22:36:09 19° S
SAR-Lupe-1 4.2 22:31:04 10° N 22:34:38 74° WNW 22:37:27 16° SSW
Cosmos 1302 Rocket 4.4 22:31:55 18° S 22:35:26 46° ESE 22:40:24 10° NE
ALOS 2 3.5 22:32:45 17° SE 22:35:49 41° ENE 22:39:57 10° N
Cosmos 2218 Rocket 4.2 22:34:45 10° N 22:41:09 67° ENE 22:45:53 19° SSE
Cosmos 2366 rocket 4.1 22:38:36 10° N 22:44:56 70° ENE 22:49:34 19° SSE
RESURS DK-1 3.8 22:43:05 10° NW 22:46:37 27° WSW 22:48:58 16° SSW
Cosmos 2082 Rocket 2.6 22:42:49 19° S 22:46:40 47° ESE 22:52:07 10° NE
H-2A R/B 4.3 22:45:15 10° NNE 22:49:08 35° E 22:51:09 22° SSE
Cosmos 2341 Rocket 4.1 22:43:04 10° NNW 22:49:26 82° W 22:54:07 19° S
Cosmos 2058 Rocket 3.1 22:47:54 10° NNW 22:52:18 77° W 22:55:04 23° S
Spot 4 3.8 22:52:43 22° SSE 22:55:48 87° WSW 23:00:38 10° NNW
Cosmos 1892 Rocket 3.7 22:53:33 18° SSW 22:56:49 73° WNW 23:01:13 10° N
Cosmos 1825 2.6 22:58:50 26° SSE 23:00:32 46° E 23:04:08 10° NNE
Cosmos 2360 Rocket 4.0 22:57:31 10° NNW 23:02:19 27° NE 23:07:07 10° E
Cosmos 968 Rocket 3.7 22:58:59 10° NNW 23:04:07 62° WSW 23:07:22 22° S
Cosmos 192 4.3 23:00:40 17° SSW 23:04:27 85° ESE 23:09:24 10° NNE
ERS-2 3.6 23:01:47 10° NE 23:04:42 23° E 23:05:53 19° SE
Cosmos-2242 4.0 23:01:43 10° N 23:05:40 36° ENE 23:08:16 18° SE
GP-B 3.7 23:03:53 10° N 23:08:13 52° W 23:11:19 18° SSW
Cosmos 1959 Rocket 4.4 23:03:19 10° N 23:09:28 85° W 23:13:40 21° S
SL-8 R/B 4.4 23:05:11 10° W 23:09:30 33° SSW 23:11:22 25° SSE
Cosmos 1626 Rocket 3.7 23:10:22 26° SSE 23:12:40 60° E 23:16:58 10° NNE
Cosmos 1869 3.2 23:11:19 10° N 23:15:13 87° WSW 23:17:08 29° S
Cosmos 1606 4.0 23:12:36 10° N 23:16:05 31° ENE 23:18:18 18° ESE
BREEZE-M DEB (TANK) 3.6 23:13:28 10° W 23:16:37 70° S 23:28:17 10° ESE
Meteor 1-27 4.2 23:11:28 10° NNW 23:17:03 79° W 23:20:39 23° S
ASTEX 1 4.4 23:13:21 10° N 23:18:04 43° WNW 23:22:15 13° SW
Cosmos 2181 Rocket 4.0 23:20:12 19° SSW 23:24:45 82° W 23:31:01 10° N
COSMOS 2406 3.4 23:19:53 11° SW 23:25:30 75° WNW 23:31:18 10° NNE
ADEOS Rocket 3.5 23:20:28 21° SSE 23:25:42 84° WSW 23:33:28 10° NNW
Cosmos 1633 3.0 23:25:15 30° SSE 23:26:31 45° E 23:29:52 10° NNE
Cosmos 2369 4.4 23:21:22 10° NW 23:26:44 42° WSW 23:30:04 21° SSW
USA 267 3.3 23:21:42 10° ENE 23:28:16 83° NNW 23:34:50 10° WSW
SL-16 R/B 2.6 23:22:46 10° NNW 23:28:26 63° NE 23:33:07 15° SE
Okean 1-7 Rocket 3.6 23:27:28 24° SSW 23:30:07 81° WNW 23:34:38 10° N
Cosmos 1892 3.6 23:30:47 19° SW 23:33:09 42° WNW 23:36:46 10° N
Cosmos 1980 Rocket 2.9 23:29:52 10° NW 23:35:10 41° WSW 23:38:22 22° SSW
SJ 16-02 2.1 23:31:42 10° NNW 23:36:01 47° ENE 23:39:12 17° SE
Cosmos 1486 Rocket 4.0 23:31:16 10° NNW 23:36:29 71° WSW 23:39:34 25° S
Cosmos 1697 Rocket 4.3 23:33:08 10° NW 23:37:16 21° W 23:40:27 13° SW
Cosmos 2084 Rocket 4.4 23:34:42 10° WNW 23:38:05 28° WSW 23:39:10 25° SSW
USA 276 1.8 23:36:09 10° W 23:39:09 68° S 23:42:08 10° E
Cosmos 1821 Rocket 4.0 23:35:26 10° N 23:41:46 88° E 23:45:54 23° S
Cosmos 2219 Rocket 4.2 23:37:58 10° NNW 23:42:41 26° NE 23:47:23 10° E
Cosmos 1340 Rocket 4.3 23:48:43 18° SE 23:50:29 25° E 23:53:44 10° NE
Cosmos 1992 Rocket 4.0 23:48:18 22° SSW 23:51:44 87° ESE 23:57:01 10° NNE
Resurs 1-4 Rocket 4.4 23:55:50 10° ENE 23:57:45 12° E 23:59:40 10° ESE
